Simultaneous Nadir Overpasses (SNOs) Predictions

Prediction of SNOs between NOAA-19 and TERRA Satellite Orbit:

Table of predicted SNOs for the next 14.0 days since TLE Epoch: 4/20/2019
Index Date (NOAA-19) Time (NOAA-19) Lat,Lon (NOAA-19) SZA (NOAA-19 ) Date (TERRA) Time (TERRA) Lat,Lon (TERRA) SZA (TERRA ) Distance(km) Time Diff (sec)
1 04/21/2019 01:08:19 78.26,-175.81 67.36 04/21/2019 01:08:49 78.28,-175.85 67.39 2.38 30
2 04/21/2019 01:59:13 -78.24, -8.41 112.66 04/21/2019 01:58:17 -78.24, -8.42 112.68 0.34 56
3 04/23/2019 06:41:41 -78.29, -79.25 113.36 04/23/2019 06:42:34 -78.29, -79.25 113.35 0.39 53
4 04/23/2019 07:32:46 78.24, 88.29 66.61 04/23/2019 07:32:01 78.24, 88.18 66.59 2.41 45
5 04/25/2019 12:15:14 78.29, 17.43 65.93 04/25/2019 12:16:18 78.30, 17.35 65.94 1.63 64
6 04/25/2019 13:06:08 -78.27,-175.17 114.10 04/25/2019 13:05:46 -78.26,-175.19 114.12 1.84 22
7 04/27/2019 18:39:41 78.28, -78.52 65.21 04/27/2019 18:39:30 78.27, -78.58 65.18 2.09 11
8 04/30/2019 00:13:03 -78.31, 18.03 115.47 04/30/2019 00:13:15 -78.29, 18.08 115.48 2.75 12
9 05/02/2019 05:46:35 78.30, 114.81 63.87 05/02/2019 05:46:59 78.30, 114.71 63.87 2.30 24




NCC Satellite Simultaneous Nadir Overpasses (SNOs) Prediction Service
